Location: Poughquag
(41.6090°N, 73.6820°W)
Time: 12:42:41
(UTC-04:00)

Vanguard 2 Rocket - Pass Details

Date: 29 May 2020
Orbit: 556 x 3324 km, 32.9° (Epoch: 06 July)

Event Time Altitude Azimuth Distance (km) Brightness Sun altitude
Rises 22:03:07 0° 276° (W) 5,951 11.8 -15.5°
Reaches altitude 10° 22:07:08 10° 268° (W) 5,283 11.3 -15.9°
Maximum altitude 22:21:10 34° 212° (SSW) 4,394 10.1 -17.6°
Enters shadow 22:33:16 19° 166° (SSE) 5,534 10.3 -18.9°
Drops below altitude 10° 22:37:52 10° 157° (SSE) 6,215 - -19.3°
Sets 22:43:15 0° 149° (SSE) 7,084 - -19.9°
